"2010-10-24 00:00:00",273901,10.24,326,7.096,1.522,15.23,104.9868,12.04,13.12,31.9,0,110.3,13.3,12.83,288.0
"2010-10-24 00:00:30",273902,11,331.9,6.125,0.828,17.26,104.9919,12.05,13.15,31.91,0,110.3,13.3,12.85,293.9
"2010-10-24 00:01:00",273903,10.76,329.6,6.363,1.213,16.47,104.9925,12.05,13.2,31.95,0,110.3,13.3,12.85,291.6
"2010-10-24 00:01:30",273904,10.22,330.3,6.523,1.261,15.87,104.9966,12.06,13.17,31.91,0,110.3,13.3,12.86,292.3
"2010-10-24 00:02:00",273905,8.9,327.5,4.862,1.258,13.1,104.9993,12.07,12.92,31.45,0,110.3,13.3,12.86,289.5
"2010-10-24 00:02:30",273906,8.03,319.2,1.93,0.14,11.9,105.0008,12.07,12.94,31.6,0,110.3,13.34,12.87,281.2
"2010-10-24 00:03:00",273907,7.996,320.9,2.079,0.189,12.14,105.0052,12.09,12.94,31.64,0,110.3,13.34,12.88,282.9
"2010-10-24 00:03:30",273908,9.53,325.7,8.44,1.592,15.08,105.0058,12.09,13.12,31.89,0,110.3,13.3,12.88,287.7
"2010-10-24 00:04:00",273909,9.87,328.4,7.302,1.284,16.64,105.0073,12.09,13.19,31.95,0,110.3,13.3,12.89,290.4
"2010-10-24 00:04:30",273910,9.85,330,6.906,1.344,16.45,105.007,12.09,13.2,32.03,0,110.4,13.3,12.88,292.0
"2010-10-24 00:05:00",273911,10.8,329.6,5.856,1.254,16.11,105.0082,12.09,13.21,31.98,0,110.3,13.3,12.89,291.6
"2010-10-24 00:05:30",273912,10.83,329.9,7.09,1.148,15.53,105.0085,12.09,13.12,31.8,0,110.3,13.3,12.89,291.9
"2010-10-24 00:06:00",273913,9.17,322.1,0.645,0.509,12.04,105.0085,12.09,12.94,31.58,0,110.3,13.3,12.89,284.1
"2010-10-24 00:06:30",273914,8.87,323.5,1.15,0.209,12.11,105.0085,12.09,12.95,31.56,0,110.3,13.34,12.89,285.5
"2010-10-24 00:07:00",273915,8.79,321.7,0.755,0.101,12.55,105.0085,12.09,13.04,31.67,0,110.3,13.3,12.89,283.7
"2010-10-24 00:07:30",273916,10.27,333,6.559,1.308,16.5,105.0085,12.09,13.23,31.81,0,110.3,13.3,12.89,295.0
"2010-10-24 00:08:00",273917,10.39,336.1,6.74,1.289,16.26,105.0085,12.09,13.26,31.88,0,110.3,13.3,12.89,298.1
"2010-10-24 00:08:30",273918,10.05,333.6,6.473,1.337,16.24,105.0085,12.09,13.23,31.86,0,110.3,13.3,12.89,295.6
"2010-10-24 00:09:00",273919,9.59,330.4,6.957,1.312,14.49,105.0085,12.09,13.16,31.8,0,110.4,13.3,12.89,292.4
"2010-10-24 00:09:30",273920,8.6,322.3,2.984,0.162,12.31,105.0085,12.09,13.08,31.72,0,110.3,13.33,12.89,284.3
"2010-10-24 00:10:00",273921,8.53,321,2.63,0.196,11.92,105.0085,12.09,12.98,31.67,0,110.3,13.33,12.89,283.0
"2010-10-24 00:10:30",273922,8.48,324.2,0.854,0.116,12.38,105.0085,12.09,12.97,31.65,0,110.4,13.33,12.89,286.2
"2010-10-24 00:11:00",273923,9.41,329.5,6.44,1.368,15.44,105.0085,12.09,13.25,32.07,0,110.3,13.3,12.89,291.5
"2010-10-24 00:11:30",273924,9.56,333.6,5.828,1.266,15.96,105.0085,12.09,13.12,31.99,0,110.3,13.3,12.89,295.6
"2010-10-24 00:12:00",273925,8.57,327.4,5.591,1.158,14.93,105.0042,12.08,13.17,32.07,0,110.3,13.3,12.88,289.4
"2010-10-24 00:12:30",273926,9.19,329.6,6.025,1.407,15.04,104.9876,12.04,13.17,32.18,0,110.3,13.3,12.83,291.6
"2010-10-24 00:13:00",273927,9.31,329.5,7.925,1.301,14.09,104.9749,12.01,13.02,31.95,0,110.3,13.3,12.80,291.5
"2010-10-24 00:13:30",273928,8.28,326.5,1.417,0.223,11.92,104.9746,12.01,12.94,31.77,0,110.3,13.34,12.80,288.5
"2010-10-24 00:14:00",273929,7.714,324.1,1.836,0.202,12.09,104.9749,12.01,12.94,31.83,0,110.3,13.34,12.80,286.1
"2010-10-24 00:14:30",273930,9.08,328.9,5.973,1.338,13.95,104.9746,12.01,13.1,32.02,0,110.3,13.31,12.80,290.9
"2010-10-24 00:15:00",273931,10.41,336.4,6.34,1.252,16.76,104.9763,12.01,13.18,31.8,0,110.3,13.31,12.81,298.4
"2010-10-24 00:15:30",273932,10.05,334.1,6.262,1.345,15.98,104.9966,12.06,13.06,31.6,0,110.3,13.31,12.86,296.1
"2010-10-24 00:16:00",273933,9.8,334.2,6.174,1.404,15.88,105.0082,12.09,13.2,31.75,0,110.3,13.31,12.89,296.2
"2010-10-24 00:16:30",273934,9.44,332.8,6.953,1.457,14.99,105.0082,12.09,13.19,31.75,0,110.3,13.31,12.89,294.8
"2010-10-24 00:17:00",273935,8.1,326.4,1.781,0.198,11.96,105.0085,12.09,12.96,31.5,0,110.3,13.34,12.89,288.4
"2010-10-24 00:17:30",273936,7.83,323.3,1.771,0.198,11.96,105.0085,12.09,12.98,31.72,0,110.3,13.34,12.89,285.3
"2010-10-24 00:18:00",273937,7.738,322.8,1.859,0.217,12.35,105.0085,12.09,13.02,31.82,0,110.3,13.35,12.89,284.8
"2010-10-24 00:18:30",273938,9.28,331.4,6.378,1.243,16.19,104.9955,12.06,13.22,32.26,0,110.3,13.31,12.86,293.4
"2010-10-24 00:19:00",273939,8.78,330.2,6.983,1.396,15.09,104.9749,12.01,13.13,32.02,0,110.3,13.31,12.80,292.2
"2010-10-24 00:19:30",273940,9.19,334.2,6.067,1.346,16.01,104.9746,12.01,13.18,32.06,0,110.3,13.31,12.80,296.2
"2010-10-24 00:20:00",273941,9.4,337.4,6.3,1.185,16.06,104.9749,12.01,13.2,31.97,0,110.3,13.31,12.80,299.4
"2010-10-24 00:20:30",273942,7.401,332.8,5.017,0.956,12.45,104.9873,12.04,12.94,31.49,0,110.3,13.31,12.83,294.8
"2010-10-24 00:21:00",273943,7.147,328.7,1.102,0.091,11.7,105.0042,12.08,12.96,31.57,0,110.3,13.35,12.88,290.7
"2010-10-24 00:21:30",273944,7.319,326.3,1.122,0.172,12.05,105.0085,12.09,12.96,31.56,0,110.3,13.35,12.89,288.3
"2010-10-24 00:22:00",273945,7.313,329.4,5.214,0.907,13.51,105.0088,12.09,13.05,31.58,0,110.3,13.32,12.89,291.4
"2010-10-24 00:22:30",273946,8.93,338.6,5.647,1.211,16.5,105.0099,12.1,13.22,31.75,0,110.3,13.32,12.89,300.6
"2010-10-24 00:23:00",273947,8.71,338.6,6.956,1.367,16.01,105.0102,12.1,13.23,31.71,0,110.3,13.32,12.89,300.6
"2010-10-24 00:23:30",273948,8.92,338.9,6.653,1.29,15.58,105.0123,12.1,13.22,31.77,0,110.3,13.32,12.90,300.9
"2010-10-24 00:24:00",273949,8.85,340.9,6.458,1.326,15.36,105.0147,12.11,13.12,31.64,0,110.3,13.32,12.90,302.9
"2010-10-24 00:24:30",273950,6.996,329.7,1.574,0.096,11.75,105.0165,12.11,12.99,31.51,0,110.3,13.35,12.91,291.7
"2010-10-24 00:25:00",273951,6.762,329.3,0.857,0.074,11.9,105.0182,12.12,12.99,31.51,0,110.3,13.34,12.91,291.3
"2010-10-24 00:25:30",273952,6.624,330.9,1.137,0.148,12.28,105.0233,12.13,12.99,31.41,0,110.3,13.35,12.93,292.9
"2010-10-24 00:26:00",273953,7.633,336.9,7.225,1.377,14.4,105.0236,12.13,13.16,31.58,0,110.3,13.31,12.93,298.9
"2010-10-24 00:26:30",273954,7.974,339.4,7.286,1.38,15.53,105.0265,12.14,13.19,31.74,0,110.3,13.31,12.93,301.4
"2010-10-24 00:27:00",273955,8.71,342.9,5.913,1.197,16.68,105.0283,12.14,13.24,31.86,0,110.3,13.31,12.94,304.9
"2010-10-24 00:27:30",273956,8.53,342.5,6.205,1.305,15.81,105.0286,12.15,13.24,31.9,0,110.3,13.31,12.94,304.5
"2010-10-24 00:28:00",273957,7.606,337.5,7.573,1.252,14.07,105.0301,12.15,13.06,31.68,0,110.3,13.31,12.94,299.5
"2010-10-24 00:28:30",273958,6.607,328.3,1.549,0.229,11.82,105.025,12.14,13.03,31.68,0,110.3,13.34,12.93,290.3
"2010-10-24 00:29:00",273959,6.491,326,0.874,0.119,11.72,105.0274,12.14,12.99,31.58,0,110.3,13.34,12.94,288.0
"2010-10-24 00:29:30",273960,6.753,327.8,0.995,0.196,12.15,105.0264,12.14,12.99,31.59,0,110.3,13.35,12.93,289.8
"2010-10-24 00:30:00",273961,8.26,333.5,6.18,1.156,14.78,105.0262,12.14,13.15,31.68,0,110.3,13.32,12.93,295.5
"2010-10-24 00:30:30",273962,7.576,330.7,5.704,1.322,14.28,105.0305,12.15,13.12,31.73,0,110.3,13.32,12.94,292.7
"2010-10-24 00:31:00",273963,9.02,334.9,6.468,1.303,16.52,105.027,12.14,13.2,31.82,0,110.3,13.32,12.94,296.9
"2010-10-24 00:31:30",273964,9.34,336.5,7.456,1.307,16.23,105.0349,12.16,13.33,31.56,0,110.3,13.32,12.96,298.5
"2010-10-24 00:32:00",273965,8.82,332.7,9.29,1.373,14.3,105.0431,12.18,13.04,31.16,0,110.3,13.32,12.98,294.7
"2010-10-24 00:32:30",273966,8.62,328.1,3.188,0.485,12.68,105.0431,12.18,13.14,31.18,0,110.2,13.35,12.98,290.1
"2010-10-24 00:33:00",273967,7.496,329,2.293,0.245,12.16,105.0575,12.22,13.03,31,0,110.3,13.35,13.01,291.0
"2010-10-24 00:33:30",273968,8.12,332.7,6.475,1.16,14.09,105.0753,12.27,13.08,31.19,0,110.3,13.32,13.06,294.7
"2010-10-24 00:34:00",273969,7.11,327.9,6.078,1.109,14.1,105.0601,12.23,13.19,31.7,0,110.3,13.32,13.02,289.9
"2010-10-24 00:34:30",273970,8.45,338.4,6.234,0.982,16.41,105.044,12.19,13.2,31.95,0,110.3,13.32,12.98,300.4
"2010-10-24 00:35:00",273971,7.879,337.9,6.682,1.299,15.93,105.0406,12.18,13.28,32,0,110.3,13.32,12.97,299.9
"2010-10-24 00:35:30",273972,7.719,334.9,6.133,1.222,14.37,105.026,12.14,13.12,31.68,0,110.3,13.32,12.93,296.9
"2010-10-24 00:36:00",273973,7.84,336.1,6.682,1.134,14.43,105.0217,12.13,13.17,31.73,0,110.3,13.32,12.92,298.1
"2010-10-24 00:36:30",273974,6.23,331.2,1.068,0.071,11.8,105.0133,12.11,12.99,31.75,0,110.2,13.36,12.90,293.2
"2010-10-24 00:37:00",273975,5.825,332.4,1.303,0.163,11.87,105.0101,12.1,12.98,31.86,0,110.3,13.36,12.89,294.4
"2010-10-24 00:37:30",273976,5.812,331.2,2.212,0.282,12.16,105.0101,12.1,13,31.95,0,110.2,13.36,12.89,293.2
"2010-10-24 00:38:00",273977,7.535,334.6,5.674,1.198,15.09,105.0093,12.1,13.12,32.12,0,110.3,13.32,12.89,296.6
"2010-10-24 00:38:30",273978,7.798,338,6.771,1.408,15.75,104.9997,12.07,13.2,32.12,0,110.2,13.33,12.87,300.0
"2010-10-24 00:39:00",273979,7.528,334.9,7.018,1.254,14.51,104.9949,12.06,13.09,32.04,0,110.2,13.33,12.85,296.9
"2010-10-24 00:39:30",273980,8.24,336.7,6.864,1.354,15.26,104.9941,12.06,13.13,31.94,0,110.3,13.32,12.85,298.7
"2010-10-24 00:40:00",273981,8.08,333.3,7.454,1.34,13.94,105.0085,12.09,12.96,31.57,0,110.3,13.33,12.89,295.3
"2010-10-24 00:40:30",273982,6.775,327.8,2.568,0.213,12.4,105.0101,12.1,13.09,31.64,0,110.2,13.36,12.89,289.8
"2010-10-24 00:41:00",273983,6.751,329,1.538,0.143,12,105.0101,12.1,12.96,31.71,0,110.2,13.36,12.89,291.0
"2010-10-24 00:41:30",273984,7.042,328,1.004,0.545,12.33,105.0101,12.1,12.96,31.64,0,110.2,13.32,12.89,290.0
"2010-10-24 00:42:00",273985,8.02,334.8,6.617,1.332,15.47,105.0101,12.1,13.25,31.88,0,110.2,13.33,12.89,296.8
"2010-10-24 00:42:30",273986,7.683,332.7,6.594,1.292,15.37,105.0101,12.1,13.19,31.83,0,110.2,13.33,12.89,294.7
"2010-10-24 00:43:00",273987,7.008,327.9,4.678,1.181,13.63,105.0101,12.1,13.06,31.64,0,110.2,13.33,12.89,289.9
"2010-10-24 00:43:30",273988,7.726,337,7.001,1.436,15.3,105.0135,12.11,13.26,31.87,0,110.2,13.33,12.90,299.0
"2010-10-24 00:44:00",273989,6.787,332.7,4.225,0.815,13.39,105.0223,12.13,13.16,31.72,0,110.2,13.33,12.92,294.7
"2010-10-24 00:44:30",273990,7.374,333.8,5.748,1.219,13.74,105.0333,12.16,13.01,31.54,0,110.2,13.32,12.95,295.8
"2010-10-24 00:45:00",273991,6.37,328.9,1.019,0.14,12.09,105.0387,12.17,12.98,31.45,0,110.2,13.36,12.97,290.9
"2010-10-24 00:45:30",273992,7.004,331.9,6.073,1.222,13.86,105.0432,12.18,13.19,31.67,0,110.2,13.33,12.98,293.9
"2010-10-24 00:46:00",273993,8.32,337.8,6.538,1.118,16.31,105.0434,12.18,13.23,31.75,0,110.2,13.33,12.98,299.8
"2010-10-24 00:46:30",273994,7.157,330.8,6.338,1.398,14.28,105.0426,12.18,13.09,31.62,0,110.2,13.33,12.98,292.8
"2010-10-24 00:47:00",273995,7.114,329.8,5.614,1.262,13.43,105.0426,12.18,13,31.5,0,110.2,13.33,12.98,291.8
"2010-10-24 00:47:30",273996,7.402,331.1,7.604,1.324,14.65,105.0437,12.18,13.13,31.57,0,110.2,13.33,12.98,293.1
"2010-10-24 00:48:00",273997,6.833,328.5,6.136,1.251,14.1,105.044,12.19,13.19,31.65,0,110.2,13.33,12.98,290.5
"2010-10-24 00:48:30",273998,6.711,328.2,6.048,0.964,13.56,105.044,12.19,13.2,31.63,0,110.2,13.33,12.98,290.2
"2010-10-24 00:49:00",273999,5.931,324.7,1.325,0.195,12.17,105.044,12.19,13.04,31.45,0,110.2,13.36,12.98,286.7
"2010-10-24 00:49:30",274000,5.762,324.8,3.685,0.839,12.44,105.044,12.19,13.05,31.48,0,110.2,13.33,12.98,286.8
"2010-10-24 00:50:00",274001,7.455,335.9,5.835,1.237,16.2,105.044,12.19,13.32,31.8,0,110.2,13.33,12.98,297.9
"2010-10-24 00:50:30",274002,7.353,332.1,6.468,1.463,15.41,105.044,12.19,13.2,31.67,0,110.2,13.33,12.98,294.1
"2010-10-24 00:51:00",274003,5.858,322.4,1.719,0.114,12.31,105.044,12.19,13.04,31.52,0,110.2,13.36,12.98,284.4
"2010-10-24 00:51:30",274004,5.926,323.2,2.549,0.639,12.38,105.044,12.19,13.08,31.57,0,110.2,13.33,12.98,285.2
"2010-10-24 00:52:00",274005,7.653,331.7,6.758,1.221,15.98,105.0437,12.18,13.31,31.84,0,110.2,13.33,12.98,293.7
"2010-10-24 00:52:30",274006,7.362,331.8,6.851,1.296,15.41,105.0406,12.18,13.18,31.76,0,110.2,13.33,12.97,293.8
"2010-10-24 00:53:00",274007,5.382,319.6,1.533,0.127,12.19,105.0344,12.16,13.02,31.66,0,110.2,13.36,12.95,281.6
"2010-10-24 00:53:30",274008,5.357,320.7,0.913,0.112,12.26,105.0237,12.13,13.02,31.68,0,110.3,13.36,12.93,282.7
"2010-10-24 00:54:00",274009,7.054,328.7,7.501,1.219,15.86,105.0124,12.1,13.29,31.99,0,110.2,13.33,12.90,290.7
"2010-10-24 00:54:30",274010,6.826,328.9,7.309,1.377,15.55,105.0101,12.1,13.21,31.92,0,110.2,13.33,12.89,290.9
"2010-10-24 00:55:00",274011,4.937,317.5,1.415,0.081,12.14,105.0101,12.1,13.01,31.75,0,110.2,13.36,12.89,279.5
"2010-10-24 00:55:30",274012,5.69,320.8,4.875,1.161,12.52,105.0101,12.1,12.99,31.72,0,110.2,13.33,12.89,282.8
"2010-10-24 00:56:00",274013,6.739,324,5.306,1.21,13.93,105.0101,12.1,13.1,31.81,0,110.2,13.33,12.89,286.0
"2010-10-24 00:56:30",274014,6.991,326.3,6.422,1.355,15.17,105.0101,12.1,13.23,31.91,0,110.2,13.33,12.89,288.3
"2010-10-24 00:57:00",274015,6.723,325.8,7.507,1.291,14.78,105.0101,12.1,13.13,31.8,0,110.2,13.33,12.89,287.8
"2010-10-24 00:57:30",274016,5.319,318,1.137,0.129,12.21,105.0101,12.1,13.01,31.68,0,110.2,13.36,12.89,280.0
"2010-10-24 00:58:00",274017,6.721,325.5,6.764,1.331,14.53,105.0101,12.1,13.21,31.88,0,110.2,13.33,12.89,287.5
"2010-10-24 00:58:30",274018,6.52,328.1,6.02,1.362,14.92,105.0101,12.1,13.16,31.85,0,110.2,13.33,12.89,290.1
"2010-10-24 00:59:00",274019,5.47,321.7,0.567,0.063,12.1,105.0101,12.1,13.02,31.75,0,110.2,13.36,12.89,283.7
"2010-10-24 00:59:30",274020,5.366,322,0.701,0.072,12.12,105.0101,12.1,13.01,31.74,0,110.2,13.36,12.89,284.0
"2010-10-24 01:00:00",274021,5.339,324,1.133,0.083,12.5,105.0101,12.1,13.1,31.87,0,110.2,13.36,12.89,286.0
"2010-10-24 01:00:30",274022,6.979,331.3,6.48,1.249,16,105.0101,12.1,13.27,32.08,0,110.2,13.33,12.89,293.3
"2010-10-24 01:01:00",274023,5.952,326.7,6.416,1.208,14.87,105.0101,12.1,13.21,32.01,0,110.2,13.33,12.89,288.7
"2010-10-24 01:01:30",274024,5.335,322.8,3.227,0.704,12.52,105.0101,12.1,12.99,31.85,0,110.2,13.33,12.89,284.8
"2010-10-24 01:02:00",274025,5.634,323.1,5.511,1.147,13.28,105.0101,12.1,13.13,32,0,110.2,13.33,12.89,285.1
"2010-10-24 01:02:30",274026,6.608,327.1,6.662,1.304,15.85,105.0101,12.1,13.24,32.14,0,110.2,13.33,12.89,289.1
"2010-10-24 01:03:00",274027,5.331,317,4.889,1.059,12.84,105.0101,12.1,12.99,31.88,0,110.2,13.33,12.89,279.0
"2010-10-24 01:03:30",274028,4.753,314.2,0.632,0.06,11.8,105.0101,12.1,12.95,31.88,0,110.2,13.36,12.89,276.2
"2010-10-24 01:04:00",274029,4.738,314.4,0.6,0.065,11.98,105.0101,12.1,12.97,31.89,0,110.2,13.37,12.89,276.4
"2010-10-24 01:04:30",274030,5.874,320.7,7.589,1.341,14.89,105.0101,12.1,13.18,32.12,0,110.2,13.34,12.89,282.7
"2010-10-24 01:05:00",274031,6.593,323.1,6.082,1.176,16.33,105.0031,12.08,13.22,32.23,0,110.2,13.34,12.87,285.1
"2010-10-24 01:05:30",274032,5.641,316.4,6.179,1.297,13.73,104.9912,12.05,12.95,32,0,110.2,13.34,12.84,278.4
"2010-10-24 01:06:00",274033,5.207,315.2,5.724,1.086,13.44,104.9867,12.04,13.09,32.16,0,110.2,13.33,12.83,277.2
"2010-10-24 01:06:30",274034,6.7,320.6,6.166,1.204,15.19,104.9817,12.03,13.11,32.17,0,110.2,13.33,12.82,282.6
"2010-10-24 01:07:00",274035,6.599,320.3,6.348,1.33,15.01,104.9836,12.03,13.04,32.13,0,110.2,13.34,12.82,282.3
"2010-10-24 01:07:30",274036,5.097,314.2,0.448,0.098,12.04,104.9791,12.02,12.93,32.07,0,110.2,13.37,12.81,276.2
"2010-10-24 01:08:00",274037,5.326,314,0.982,0.14,11.99,104.9771,12.01,12.92,32.01,0,110.2,13.37,12.81,276.0
"2010-10-24 01:08:30",274038,5.286,315.5,1.101,0.138,12.28,104.9853,12.03,12.93,31.93,0,110.2,13.37,12.83,277.5
"2010-10-24 01:09:00",274039,6.538,320.8,6.547,1.297,15.22,104.9898,12.05,13.25,32.27,0,110.2,13.34,12.84,282.8
"2010-10-24 01:09:30",274040,6.888,321.8,7.223,1.312,15.69,104.9924,12.05,13.22,32.25,0,110.2,13.34,12.85,283.8
"2010-10-24 01:10:00",274041,7.583,323.1,7.097,1.258,15.56,104.9904,12.05,13.06,32.12,0,110.2,13.34,12.84,285.1
"2010-10-24 01:10:30",274042,6.65,318.6,6.342,1.314,13.82,104.9912,12.05,13.06,32.13,0,110.2,13.34,12.84,280.6
"2010-10-24 01:11:00",274043,6.957,319.9,6.866,1.339,15.05,104.989,12.04,13.13,32.19,0,110.2,13.34,12.84,281.9
"2010-10-24 01:11:30",274044,5.237,312.5,1.13,0.079,12.02,104.9912,12.05,12.95,31.99,0,110.2,13.34,12.84,274.5
"2010-10-24 01:12:00",274045,5.069,308.3,1.685,0.084,11.87,104.9912,12.05,12.93,31.99,0,110.2,13.37,12.84,270.3
"2010-10-24 01:12:30",274046,5.023,309.2,0.998,0.058,12.08,104.9912,12.05,12.94,32.01,0,110.2,13.38,12.84,271.2
"2010-10-24 01:13:00",274047,6.372,315.2,6.95,1.32,14.45,104.9845,12.03,12.97,32.06,0,110.2,13.34,12.83,277.2
"2010-10-24 01:13:30",274048,6.316,316.9,6.837,1.346,14.97,104.9819,12.03,13.17,32.26,0,110.2,13.34,12.82,278.9
"2010-10-24 01:14:00",274049,5.79,315.4,5.489,1.277,13.82,104.9788,12.02,12.96,32.06,0,110.2,13.34,12.81,277.4
"2010-10-24 01:14:30",274050,5.91,316.7,6.639,1.32,14.95,104.9777,12.02,13.14,32.23,0,110.2,13.33,12.81,278.7
"2010-10-24 01:15:00",274051,5.743,314.5,6.373,1.319,14.01,104.9771,12.01,13.14,32.21,0,110.2,13.33,12.81,276.5
"2010-10-24 01:15:30",274052,5.78,313.3,6.833,1.311,13.88,104.98,12.02,13.08,32.14,0,110.2,13.33,12.82,275.3
"2010-10-24 01:16:00",274053,4.64,308,0.683,0.086,11.74,104.978,12.02,12.94,31.98,0,110.2,13.36,12.81,270.0
"2010-10-24 01:16:30",274054,4.581,309,0.945,0.057,11.88,104.9794,12.02,12.94,31.97,0,110.2,13.36,12.81,271.0
"2010-10-24 01:17:00",274055,4.538,313,1.119,0.094,12.21,104.9831,12.03,12.94,31.97,0,110.2,13.36,12.82,275.0
"2010-10-24 01:17:30",274056,4.93,313.1,5.986,1.012,13.91,104.9825,12.03,13.12,32.17,0,110.2,13.33,12.82,275.1
"2010-10-24 01:18:00",274057,6.509,321,5.913,1.125,16.66,104.9814,12.02,13.19,32.24,0,110.2,13.33,12.82,283.0
"2010-10-24 01:18:30",274058,5.75,314.3,5.968,1.334,14.23,104.9786,12.02,13.05,32.14,0,110.2,13.33,12.81,276.3
"2010-10-24 01:19:00",274059,6.064,316.9,6.75,1.355,15.12,104.9781,12.02,13.15,32.27,0,110.2,13.33,12.81,278.9
"2010-10-24 01:19:30",274060,5.427,313.5,6.383,1.293,13.9,104.9772,12.01,13.16,32.31,0,110.2,13.33,12.81,275.5
"2010-10-24 01:20:00",274061,5.538,313.3,7.107,1.279,12.99,104.9778,12.02,12.92,32.13,0,110.2,13.34,12.81,275.3
"2010-10-24 01:20:30",274062,4.593,308.6,0.452,0.102,11.63,104.9796,12.02,12.93,32.13,0,110.2,13.38,12.81,270.6
"2010-10-24 01:21:00",274063,4.424,308.4,0.474,0.095,11.94,104.9781,12.02,12.91,32.15,0,110.2,13.38,12.81,270.4
"2010-10-24 01:21:30",274064,4.314,309.6,0.886,0.065,12.24,104.9781,12.02,12.91,32.11,0,110.2,13.38,12.81,271.6
"2010-10-24 01:22:00",274065,4.677,311.7,5.485,1.186,13.37,104.981,12.02,12.96,32.16,0,110.2,13.34,12.82,273.7
"2010-10-24 01:22:30",274066,6.657,327.4,8.82,1.357,16.03,104.9804,12.02,13.19,32.28,0,110.2,13.34,12.82,289.4
"2010-10-24 01:23:00",274067,7.765,332.9,5.488,1.406,16.79,104.981,12.02,13.19,32.09,0,110.2,13.34,12.82,294.9
"2010-10-24 01:23:30",274068,7.67,326.9,13.08,1.583,15.28,104.9798,12.02,13.16,32.15,0,110.2,13.34,12.81,288.9
"2010-10-24 01:24:00",274069,5.597,314.8,7.418,1.07,14.12,104.9825,12.03,13.08,32.12,0,110.2,13.34,12.82,276.8
"2010-10-24 01:24:30",274070,4.842,331.5,3.774,0.463,11.67,104.9896,12.05,12.93,31.89,0,110.2,13.38,12.84,293.5
"2010-10-24 01:25:00",274071,4.741,324.5,6.847,0.485,11.61,104.996,12.06,12.93,31.94,0,110.2,13.38,12.86,286.5
"2010-10-24 01:25:30",274072,4.661,322.2,7.888,0.516,11.91,104.9955,12.06,12.95,31.95,0,110.2,13.38,12.86,284.2
"2010-10-24 01:26:00",274073,4.323,313.4,1.289,0.056,12.25,104.986,12.04,12.94,32.16,0,110.2,13.38,12.83,275.4
"2010-10-24 01:26:30",274074,5.476,320.7,7.183,1.283,15.03,104.9837,12.03,13.11,32.38,0,110.2,13.34,12.82,282.7
"2010-10-24 01:27:00",274075,7.014,326.3,8.16,1.331,16.87,104.9855,12.04,13.16,32.28,0,110.2,13.34,12.83,288.3
"2010-10-24 01:27:30",274076,7.018,324.8,5.315,1.238,16.48,104.9861,12.04,13.18,32.13,0,110.2,13.34,12.83,286.8
"2010-10-24 01:28:00",274077,6.104,322.1,6.886,1.32,15.09,104.9893,12.04,13.03,31.96,0,110.2,13.34,12.84,284.1
"2010-10-24 01:28:30",274078,4.583,318.5,5.858,0.88,12.51,104.9952,12.06,13.07,31.96,0,110.2,13.34,12.85,280.5
"2010-10-24 01:29:00",274079,5.242,312.1,3.226,0.28,11.58,105.006,12.09,12.94,31.91,0,110.2,13.38,12.88,274.1
"2010-10-24 01:29:30",274080,5.431,315.2,3.691,0.284,11.78,105.0032,12.08,12.96,31.91,0,110.2,13.38,12.87,277.2
"2010-10-24 01:30:00",274081,5.03,326.8,3.888,0.326,12.18,105.0027,12.08,12.96,31.88,0,110.2,13.38,12.87,288.8
"2010-10-24 01:30:30",274082,5.473,328.6,3.308,0.281,12.6,105.0011,12.08,13,31.96,0,110.2,13.38,12.87,290.6
"2010-10-24 01:31:00",274083,7.561,339.9,6.803,1.46,16.85,104.994,12.06,13.16,32.1,0,110.2,13.34,12.85,301.9
"2010-10-24 01:31:30",274084,6.895,344.1,5.141,0.711,17.7,104.996,12.06,13.23,32.18,0,110.2,13.34,12.86,306.1
"2010-10-24 01:32:00",274085,5.948,337.2,12.44,0.933,16.85,104.9992,12.07,13.26,32.3,0,110.2,13.34,12.86,299.2
"2010-10-24 01:32:30",274086,4.907,325.6,5.085,0.976,12.65,104.9938,12.06,12.99,32.08,0,110.2,13.34,12.85,287.6
"2010-10-24 01:33:00",274087,4.379,322,3.666,0.206,11.22,104.9932,12.05,12.94,32.19,0,110.2,13.37,12.85,284.0
"2010-10-24 01:33:30",274088,4.121,320.8,1.585,0.178,11.42,104.9938,12.06,12.93,32.17,0,110.2,13.37,12.85,282.8
"2010-10-24 01:34:00",274089,4.1,321.9,2.09,0.157,11.74,104.9944,12.06,12.92,32.14,0,110.2,13.37,12.85,283.9
"2010-10-24 01:34:30",274090,3.845,319.1,3.038,0.281,12.17,104.9935,12.06,12.92,32.14,0,110.2,13.37,12.85,281.1
"2010-10-24 01:35:00",274091,4.332,315.4,4.432,0.794,13.34,104.9947,12.06,12.98,32.17,0,110.1,13.34,12.85,277.4
"2010-10-24 01:35:30",274092,5.385,325,6.51,1.371,15.56,104.9956,12.06,13.02,32.16,0,110.2,13.34,12.86,287.0
"2010-10-24 01:36:00",274093,5.454,332.6,4.973,0.981,17.27,104.9964,12.06,13.19,32.39,0,110.2,13.34,12.86,294.6
"2010-10-24 01:36:30",274094,5.442,326.6,6.119,1.037,16.45,104.9994,12.07,13.2,32.38,0,110.2,13.34,12.87,288.6
"2010-10-24 01:37:00",274095,3.928,319.4,7.057,0.621,12.71,104.9961,12.06,13.06,32.28,0,110.2,13.34,12.86,281.4
"2010-10-24 01:37:30",274096,3.349,318.1,2.73,0.165,11.32,104.9959,12.06,12.91,32.26,0,110.2,13.38,12.86,280.1
"2010-10-24 01:38:00",274097,4.059,324.6,3.161,0.425,11.41,104.9895,12.05,12.91,32.16,0,110.2,13.38,12.84,286.6
"2010-10-24 01:38:30",274098,4.557,319.1,6.179,0.444,11.72,104.9991,12.07,12.9,32.11,0,110.2,13.38,12.86,281.1
"2010-10-24 01:39:00",274099,4.376,321.6,2.385,0.166,12.19,105.0009,12.07,12.9,32.12,0,110.2,13.38,12.87,283.6
"2010-10-24 01:39:30",274100,4.409,322.5,1.361,0.186,12.6,105.003,12.08,12.9,32.07,0,110.2,13.38,12.87,284.5
"2010-10-24 01:40:00",274101,5.162,325.3,6.063,1.264,14.77,105.0033,12.08,13.03,32.25,0,110.2,13.35,12.88,287.3
"2010-10-24 01:40:30",274102,5.977,330.7,5.868,1.138,16.95,105.0056,12.09,13.21,32.49,0,110.2,13.35,12.88,292.7
"2010-10-24 01:41:00",274103,5.837,327.5,5.7,1.273,16.58,105.0053,12.09,13.19,32.45,0,110.2,13.35,12.88,289.5
"2010-10-24 01:41:30",274104,5.214,322.9,6.453,1.293,13.2,105.0048,12.08,12.94,32.22,0,110.2,13.35,12.88,284.9
"2010-10-24 01:42:00",274105,4.249,322.3,1.186,0.116,11.38,105.006,12.09,12.9,32.11,0,110.2,13.38,12.88,284.3
"2010-10-24 01:42:30",274106,4.257,319.1,1.527,0.09,11.39,105.008,12.09,12.91,32.09,0,110.2,13.38,12.89,281.1
"2010-10-24 01:43:00",274107,4.09,321.5,2.971,0.152,11.72,105.008,12.09,12.91,32.14,0,110.2,13.38,12.89,283.5
"2010-10-24 01:43:30",274108,4.322,318.2,2.088,0.252,12.23,105.009,12.1,12.9,32.11,0,110.2,13.38,12.89,280.2
"2010-10-24 01:44:00",274109,4.438,326.5,2.285,0.159,12.66,105.0101,12.1,12.9,32.11,0,110.2,13.39,12.89,288.5
"2010-10-24 01:44:30",274110,5.948,332.3,5.544,1.5,15.71,105.0098,12.1,13.11,32.28,0,110.2,13.35,12.89,294.3
"2010-10-24 01:45:00",274111,6.386,336.4,8.08,1.316,16.63,105.0098,12.1,13.22,32.38,0,110.2,13.35,12.89,298.4
"2010-10-24 01:45:30",274112,6.308,334.8,5.229,1.362,16.45,105.0095,12.1,13.2,32.34,0,110.2,13.35,12.89,296.8
"2010-10-24 01:46:00",274113,5.046,325.4,6.536,1.431,13.71,105.011,12.1,13,32.19,0,110.2,13.35,12.89,287.4
"2010-10-24 01:46:30",274114,4.03,321.5,1.542,0.206,11.32,105.0118,12.1,12.92,32.16,0,110.2,13.39,12.90,283.5
"2010-10-24 01:47:00",274115,4.55,320.4,3.675,0.343,11.4,105.0101,12.1,12.9,32.18,0,110.2,13.38,12.89,282.4
"2010-10-24 01:47:30",274116,5.266,326.3,1.939,0.328,11.84,105.0116,12.1,12.91,32.31,0,110.2,13.38,12.90,288.3
"2010-10-24 01:48:00",274117,5.699,324.8,1.432,0.192,12.33,105.0118,12.1,12.92,32.42,0,110.2,13.38,12.90,286.8